Overview Statistics Trail Chart Weather Telemetry Raw packets
 

This is the latest recevied weather packets stored in our database for station/object IZ2WYA-13. If no packets are shown the sender has not sent any weather packets the latest 10 day(s).

<< 12 13 14 15 16 17 18 >>
Time Temp. Humidity Pressure Rain* Wind** Luminosity Snow
1787948133 25° C 65% 1016.1 hPa - - - -
1787946332 25° C 65% 1016 hPa - - - -
1787944530 25° C 64% 1016.4 hPa - - - -
1787942729 25.56° C 63% 1016.4 hPa - - - -
1787940928 25.56° C 61% 1016.3 hPa - - - -
1787939127 25.56° C 58% 1015.9 hPa - - - -
1787937325 26.11° C 57% 1016 hPa - - - -
1787935524 26.67° C 57% 1016.1 hPa - - - -
1787933723 27.22° C 61% 1015 hPa - - - -
1787931921 27.22° C 65% 1015.1 hPa - - - -
1787930120 27.22° C 62% 1015.6 hPa - - - -
1787928319 27.22° C 57% 1016.2 hPa - - - -
1787926518 27.22° C 53% 1016.1 hPa - - - -
1787924716 27.78° C 52% 1016.2 hPa - - - -
1787922915 28.33° C 51% 1016.9 hPa - - - -
1787921114 27.78° C 49% 1017.6 hPa - - - -
1787919313 27.78° C 54% 1017.7 hPa - - - -
1787917511 27.78° C 62% 1018.1 hPa - - - -
1787915710 27.78° C 60% 1016.8 hPa - - - -
1787913909 27.78° C 60% 1017 hPa - - - -
1787912285 27.22° C 61% 1018 hPa - - - -
1787910484 26.67° C 62% 1018.4 hPa - - - -
1787908682 26.11° C 64% 1018.8 hPa - - - -
1787906881 25.56° C 65% 1019.1 hPa - - - -
1787905080 25.56° C 68% 1018.3 hPa - - - -

* Rain since midnight (hover to see other rain measurements)
** Current wind speed in m/s (hover to see current wind gust speed)